Weather in Celinnoe

Russia / Altai Krai     53°04′40″N   85°39′30″E
temp.,
°C
wind,
m/s
gust,
m/s
humid.,
%
clouds,
%
prec.,
mm/h
press.,
hPa
HPBL,
m
9 march, tue
tue901:000wsw111897100 0.6 10151123
04:00−6w71389100 0.3 1022583
07:00−11wsw51094100 0.3 1028316
10:00−12sw51095100 0.0 1030281
13:00−10ssw359292 0.0 1030292
16:00−8ssw249052 0.0 1028309
19:00−11sse238838 0.0 102721
22:00−10sse237995 0.0 102722
10 march, wed
wed1001:00−10se337298 0.0 102424
04:00−8sse3484100 0.0 102390
07:00−7s359199 0.0 102294
10:00−6sse358984 0.0 1021114
13:00−2se248853 0.0 1018166
16:00−1ese469029 0.0 1015255
19:00−2ese479465 0.0 101298
22:00−2se4884100 0.0 1010142
11 march, thu
thu1101:00−1sse51185100 0.0 1008181
04:00−1sw51280100 0.0 1008257
07:00+2sw81796100 0.2 1010801
10:000w71298100 0.5 1013683
13:00−3w5885100 0.6 1016587
16:00−3wsw6987100 0.0 1019763
19:00−5ssw3792100 0.0 1022175
22:00−9sse349363 0.0 102241
12 march, fri
fri1201:00−7se498965 0.0 1020167
04:00−7s478989 0.0 101799
07:00−5sw5178894 0.0 1017831
10:00−6w81592100 1.0 10181088
13:00−7wsw71382100 1.6 10201075
16:00−8wsw51074100 0.1 1020995
19:00−10sw2588100 0.1 1020169
22:00−11s2296100 0.3 102162
13 march, sat
sat1301:00−11sw3696100 0.7 1020297
04:00−13nw2397100 0.3 1020122
07:00−17w3497100 0.4 102278
10:00−17w5109177 0.0 1026679
13:00−16w688688 0.1 1030902
16:00−15w6886100 0.1 10341024
19:00−18sw469094 0.1 103789
22:00−21ssw44962 0.0 103966